When you browse on this site, cookies collect data to enhance your experience and personalize the content and advertising you see.
Visit our Privacy Policy to learn more. By continuing to use the site, you agree to this use of cookies and data.
  • In Hungary
  • List of Countries
  • For 7 days
  • Water Temperature
  • Weather Map
  • News
  • Weather Widgets
  • user-avatar
    Login

    Hourly Weather Markovo

    Today, 25 January, Saturday

    Time Temperature Precipitation Wind Pressure Humidity
    00:00 -1°C° 0 mm 3 mps 734 mmHg 92%
    01:00 -1°C° 0.1 mm 3 mps 734 mmHg 94%
    02:00 -1°C° 0.1 mm 3 mps 734 mmHg 95%
    03:00 -1°C° 0.1 mm 3 mps 734 mmHg 96%
    04:00 -1°C° 0.1 mm 3 mps 734 mmHg 94%
    05:00 -2°C° 0.1 mm 4 mps 733 mmHg 92%
    06:00 -2°C° 0.1 mm 4 mps 733 mmHg 89%
    07:00 -3°C° 0 mm 4 mps 733 mmHg 88%
    08:00 -3°C° 0 mm 4 mps 733 mmHg 87%
    09:00 -4°C° 0 mm 3 mps 733 mmHg 86%
    10:00 -3°C° 0 mm 4 mps 733 mmHg 86%
    11:00 -2°C° 0 mm 4 mps 732 mmHg 87%
    12:00 -1°C° 0 mm 5 mps 732 mmHg 88%
    13:00 -2°C° 0.4 mm 6 mps 732 mmHg 85%
    14:00 -2°C° 0.4 mm 6 mps 731 mmHg 83%
    15:00 -2°C° 0.4 mm 7 mps 731 mmHg 80%
    16:00 -3°C° 0.1 mm 6 mps 731 mmHg 79%
    17:00 -4°C° 0.1 mm 6 mps 731 mmHg 78%
    18:00 -5°C° 0.1 mm 6 mps 732 mmHg 77%
    19:00 -5°C° 0 mm 6 mps 732 mmHg 78%
    20:00 -5°C° 0 mm 6 mps 733 mmHg 78%
    21:00 -5°C° 0 mm 6 mps 733 mmHg 79%
    22:00 -5°C° 0 mm 6 mps 734 mmHg 79%
    23:00 -5°C° 0 mm 6 mps 735 mmHg 80%

    Tomorrow, 26 January, Sunday

    Time Temperature Precipitation Wind Pressure Humidity
    00:00 -5°C° 0 mm 6 mps 736 mmHg 80%
    01:00 -6°C° 0 mm 6 mps 737 mmHg 81%
    02:00 -6°C° 0 mm 6 mps 738 mmHg 82%
    03:00 -6°C° 0 mm 6 mps 738 mmHg 83%
    04:00 -6°C° 0 mm 6 mps 739 mmHg 84%
    05:00 -6°C° 0 mm 5 mps 740 mmHg 84%
    06:00 -6°C° 0 mm 5 mps 741 mmHg 85%
    07:00 -6°C° 0 mm 5 mps 741 mmHg 84%
    08:00 -6°C° 0 mm 5 mps 742 mmHg 84%
    09:00 -7°C° 0 mm 4 mps 742 mmHg 84%
    10:00 -5°C° 0 mm 4 mps 743 mmHg 82%
    11:00 -5°C° 0 mm 4 mps 743 mmHg 81%
    12:00 -5°C° 0 mm 4 mps 744 mmHg 79%
    13:00 -4°C° 0 mm 4 mps 744 mmHg 80%
    14:00 -4°C° 0 mm 4 mps 744 mmHg 81%
    15:00 -4°C° 0 mm 4 mps 743 mmHg 82%
    16:00 -4°C° 0.1 mm 4 mps 743 mmHg 86%
    17:00 -5°C° 0.1 mm 5 mps 742 mmHg 90%
    18:00 -5°C° 0.1 mm 5 mps 742 mmHg 94%
    19:00 -5°C° 0.4 mm 6 mps 741 mmHg 94%
    20:00 -4°C° 0.4 mm 6 mps 740 mmHg 93%
    21:00 -3°C° 0.4 mm 7 mps 739 mmHg 93%
    22:00 -2°C° 0.2 mm 6 mps 739 mmHg 93%
    23:00 -1°C° 0.2 mm 6 mps 739 mmHg 94%

    Day after tomorrow, 27 January, Monday

    Time Temperature Precipitation Wind Pressure Humidity
    00:00 +1°C° 0.2 mm 6 mps 738 mmHg 94%
    01:00 +1°C° 0.1 mm 6 mps 739 mmHg 94%
    02:00 +1°C° 0.1 mm 6 mps 739 mmHg 94%
    03:00 +1°C° 0.1 mm 5 mps 739 mmHg 94%
    04:00 0°C° 0.3 mm 5 mps 740 mmHg 95%
    05:00 -1°C° 0.3 mm 4 mps 741 mmHg 95%
    06:00 -1°C° 0.3 mm 4 mps 742 mmHg 96%
    07:00 -2°C° 0.1 mm 3 mps 742 mmHg 95%
    08:00 -3°C° 0.1 mm 2 mps 743 mmHg 94%
    09:00 -4°C° 0.1 mm 2 mps 744 mmHg 93%
    10:00 -4°C° 0 mm 2 mps 744 mmHg 90%
    11:00 -1°C° 0 mm 1 mps 745 mmHg 88%
    12:00 -1°C° 0 mm 1 mps 745 mmHg 85%
    13:00 -1°C° 0 mm 1 mps 746 mmHg 85%
    14:00 -3°C° 0 mm 2 mps 746 mmHg 85%
    15:00 -3°C° 0 mm 2 mps 746 mmHg 84%
    16:00 -4°C° 0 mm 2 mps 746 mmHg 86%
    17:00 -4°C° 0 mm 2 mps 746 mmHg 87%
    18:00 -6°C° 0 mm 3 mps 747 mmHg 88%
    19:00 -6°C° 0.2 mm 3 mps 747 mmHg 90%
    20:00 -7°C° 0.2 mm 4 mps 747 mmHg 91%
    21:00 -7°C° 0.2 mm 4 mps 747 mmHg 93%
    22:00 -7°C° 0.4 mm 4 mps 747 mmHg 93%
    23:00 -7°C° 0.4 mm 4 mps 747 mmHg 93%

    28 January, Tuesday

    Time Temperature Precipitation Wind Pressure Humidity
    00:00 -7°C° 0.4 mm 4 mps 746 mmHg 93%
    01:00 -7°C° 0.3 mm 4 mps 746 mmHg 94%
    02:00 -7°C° 0.3 mm 4 mps 746 mmHg 94%
    03:00 -6°C° 0.3 mm 3 mps 745 mmHg 94%
    04:00 -5°C° 0.3 mm 3 mps 745 mmHg 95%
    05:00 -5°C° 0.3 mm 3 mps 745 mmHg 95%
    06:00 -5°C° 0.3 mm 3 mps 745 mmHg 95%
    07:00 -5°C° 0.3 mm 3 mps 745 mmHg 96%
    08:00 -5°C° 0.3 mm 3 mps 745 mmHg 96%
    09:00 -3°C° 0.3 mm 2 mps 745 mmHg 96%
    10:00 -3°C° 0.2 mm 2 mps 745 mmHg 97%
    11:00 -3°C° 0.2 mm 2 mps 744 mmHg 97%
    12:00 -2°C° 0.2 mm 2 mps 744 mmHg 97%
    13:00 -2°C° 0.2 mm 2 mps 744 mmHg 97%
    14:00 -1°C° 0.2 mm 2 mps 744 mmHg 98%
    15:00 -1°C° 0.2 mm 2 mps 744 mmHg 98%
    16:00 -1°C° 0.1 mm 2 mps 744 mmHg 98%
    17:00 -1°C° 0.1 mm 2 mps 744 mmHg 98%
    18:00 -1°C° 0.1 mm 2 mps 744 mmHg 98%
    19:00 -1°C° 0.1 mm 2 mps 744 mmHg 98%
    20:00 -1°C° 0.1 mm 2 mps 744 mmHg 98%
    21:00 -1°C° 0.1 mm 2 mps 744 mmHg 98%
    22:00 -1°C° 0 mm 2 mps 744 mmHg 98%
    23:00 -1°C° 0 mm 2 mps 744 mmHg 98%

    29 January, Wednesday

    Time Temperature Precipitation Wind Pressure Humidity
    00:00 -1°C° 0 mm 2 mps 744 mmHg 98%
    01:00 -1°C° 0 mm 2 mps 744 mmHg 97%
    02:00 -2°C° 0 mm 2 mps 744 mmHg 97%
    03:00 -2°C° 0 mm 2 mps 744 mmHg 97%
    04:00 -2°C° 0 mm 2 mps 744 mmHg 96%
    05:00 -3°C° 0 mm 2 mps 743 mmHg 96%
    06:00 -3°C° 0 mm 2 mps 743 mmHg 96%
    07:00 -3°C° 0 mm 2 mps 743 mmHg 96%
    08:00 -3°C° 0 mm 2 mps 743 mmHg 96%
    09:00 -2°C° 0 mm 3 mps 743 mmHg 96%
    10:00 -2°C° 0 mm 3 mps 743 mmHg 95%
    11:00 -1°C° 0 mm 3 mps 743 mmHg 95%
    12:00 -1°C° 0 mm 4 mps 743 mmHg 94%
    13:00 -1°C° 0 mm 4 mps 743 mmHg 94%
    14:00 -1°C° 0 mm 4 mps 743 mmHg 94%
    15:00 -1°C° 0 mm 4 mps 742 mmHg 93%
    16:00 -1°C° 0 mm 4 mps 742 mmHg 94%
    17:00 -1°C° 0 mm 4 mps 742 mmHg 95%
    18:00 0°C° 0 mm 3 mps 742 mmHg 96%
    19:00 -1°C° 0 mm 4 mps 742 mmHg 96%
    20:00 -1°C° 0 mm 4 mps 742 mmHg 96%
    21:00 -1°C° 0 mm 4 mps 742 mmHg 96%
    22:00 -1°C° 0 mm 4 mps 741 mmHg 96%
    23:00 -1°C° 0 mm 4 mps 741 mmHg 97%

    30 January, Thursday

    Time Temperature Precipitation Wind Pressure Humidity
    00:00 -1°C° 0 mm 4 mps 741 mmHg 97%
    01:00 -1°C° 0.1 mm 4 mps 740 mmHg 97%
    02:00 -1°C° 0.1 mm 4 mps 740 mmHg 97%
    03:00 -1°C° 0.1 mm 4 mps 739 mmHg 97%
    04:00 -1°C° 0 mm 5 mps 739 mmHg 97%
    05:00 -1°C° 0 mm 5 mps 738 mmHg 97%
    06:00 -1°C° 0 mm 5 mps 738 mmHg 97%
    07:00 -1°C° 0.1 mm 5 mps 737 mmHg 97%
    08:00 -1°C° 0.1 mm 5 mps 737 mmHg 97%
    09:00 -1°C° 0.1 mm 5 mps 736 mmHg 97%
    10:00 -1°C° 0.5 mm 5 mps 736 mmHg 97%
    11:00 -1°C° 0.5 mm 4 mps 736 mmHg 97%
    12:00 -1°C° 0.5 mm 4 mps 736 mmHg 97%
    13:00 -1°C° 0 mm 4 mps 736 mmHg 93%
    14:00 0°C° 0 mm 3 mps 737 mmHg 90%
    15:00 0°C° 0 mm 3 mps 737 mmHg 86%
    16:00 -1°C° 0 mm 3 mps 737 mmHg 87%
    17:00 -2°C° 0 mm 3 mps 737 mmHg 88%
    18:00 -2°C° 0 mm 3 mps 737 mmHg 89%
    19:00 -3°C° 0 mm 4 mps 737 mmHg 88%
    20:00 -2°C° 0 mm 4 mps 737 mmHg 88%
    21:00 -2°C° 0 mm 5 mps 737 mmHg 88%
    22:00 -2°C° 0 mm 5 mps 737 mmHg 88%
    23:00 -2°C° 0 mm 4 mps 737 mmHg 88%
    Show more